Погода в Посёлке Стеклозавода

Россия / Астраханская область     46°14′36″N   47°59′46″E
темп.,
°C
ветер,
м/с
пор.,
м/с
влажн.,
%
обл.,
%
осадки,
мм/ч
давл.,
гПа
погр.,
м
1 декабря, ср
ср101:00+8юв48940 0.0 997154
04:00+8ююв129889 0.0 99425
07:00+8ссз41094100 0.0 996313
10:00+11зсз81476100 0.0 998596
13:00+13зюз9165690 0.0 9981614
16:00+8з111772100 0.0 1001834
19:00+5зсз91474100 0.0 1005956
22:00+4зсз4869100 0.0 1009676
2 декабря, чт
чт201:00+3юз487864 0.0 1010271
04:00+3юз5116778 0.0 1010324
07:00+4юз71470100 0.0 1011662
10:00+5з81374100 0.0 10141027
13:00+7з9125419 0.0 10161333
16:00+7зсз610545 0.3 10181547
19:00+4зсз36685 0.0 1020218
22:00+2зюз23723 0.0 1022103
3 декабря, пт
пт301:00+2зюз337520 0.0 102361
04:00+2ююз3377100 0.0 102348
07:00+1ююз33805 0.0 102340
10:00+4ю36745 0.0 1025150
13:00+9ю46508 0.0 1024641
16:00+9ююв476660 0.0 1023518
19:00+6юв41190100 0.0 1024256
22:00+6юв51389100 0.0 1023425
4 декабря, сб
сб401:00+6юв61587100 0.0 1022538
04:00+6юв6138769 0.0 1022407
07:00+6юв6138614 0.0 1021387
10:00+9ююв71381100 0.0 10211023
13:00+10ююв81371100 0.0 10201136
16:00+9юв71275100 0.0 1019926
19:00+8юв71380100 0.0 1019929
22:00+9ююв81375100 0.0 1018974
5 декабря, вс
вс501:00+9ююв7136998 0.0 1016842
04:00+7ююв71486100 0.0 1015509
07:00+7ююв51291100 0.0 1015446
10:00+8ююв5984100 0.0 1016558
13:00+10ююв4775100 0.0 1015711
16:00+9юв4576100 0.0 1015325
19:00+7юв3590100 0.0 1016157
22:00+7ююв2394100 0.0 101869